Location: Dugenta
(41.1333°N, 14.4500°E)
Time: 14:31:14
(UTC+00:00)

ATLAS CENTAUR R/B - Pass Details

Date: 03 March 2021
Orbit: 475 x 670 km, 64.7° (Epoch: 30 March)

Event Time Altitude Azimuth Distance (km) Brightness Sun altitude
Rises 18:17:47 0° 222° (SW) 2,526 5.2 -16.3°
Reaches altitude 10° 18:19:57 10° 227° (SW) 1,641 4.3 -16.7°
Maximum altitude 18:23:30 54° 305° (NW) 586 1.7 -17.3°
Enters shadow 18:27:02 10° 24° (NNE) 1,629 3.6 -18.0°
